MDT,Max TemperatureF,Mean TemperatureF,Min TemperatureF,Max Dew PointF,MeanDew PointF,Min DewpointF,Max Humidity, Mean Humidity, Min Humidity, Max Sea Level PressureIn, Mean Sea Level PressureIn, Min Sea Level PressureIn, Max VisibilityMiles, Mean VisibilityMiles, Min VisibilityMiles, Max Wind SpeedMPH, Mean Wind SpeedMPH, Max Gust SpeedMPH,PrecipitationIn, CloudCover, Events, WindDirDegrees
2013-10-1,66,53,40,36,30,25,62,44,26,29.95,29.90,29.81,10,10,10,33,8,43,0.00,2,,221
2013-10-2,57,51,44,40,33,26,83,58,32,30.10,30.02,29.96,10,10,5,20,10,23,0.08,5,Rain,31
2013-10-3,44,39,33,42,36,32,100,92,83,30.35,30.07,29.94,10,5,1,25,17,32,1.24,8,Rain-Snow,41
2013-10-4,43,37,31,32,30,26,100,77,53,30.53,30.45,30.30,10,7,0,18,10,22,0.10,6,Fog-Snow,343
2013-10-5,56,43,29,34,29,23,85,62,38,30.41,30.31,30.23,10,10,10,25,18,30,0.00,0,,236
2013-10-6,64,53,41,39,33,28,65,50,34,30.23,30.14,30.00,10,10,10,28,20,33,0.00,0,,235
2013-10-7,65,55,44,39,37,33,70,54,37,29.97,29.79,29.64,10,10,10,25,14,31,0.00,2,,226
2013-10-8,60,52,43,38,34,31,70,55,39,29.97,29.79,29.65,10,10,10,21,7,25,T,2,,3
2013-10-9,54,46,37,39,36,32,79,67,54,30.10,30.01,29.89,10,10,10,16,6,19,T,3,Rain,50
2013-10-10,53,45,37,45,39,36,92,78,63,29.87,29.77,29.70,10,10,9,15,4,18,0.23,5,Rain,184
2013-10-11,53,44,35,41,34,30,89,70,50,30.08,29.95,29.80,10,10,10,30,13,36,0.01,5,Rain,322
2013-10-12,52,42,31,37,33,30,92,71,50,30.18,30.13,30.08,10,10,10,15,8,23,0.00,2,,35
2013-10-13,42,38,33,40,33,28,100,81,62,30.20,30.17,30.11,10,9,4,18,8,23,0.23,5,Rain,8
2013-10-14,46,41,36,37,33,27,100,75,49,30.45,30.33,30.19,10,9,5,21,12,26,0.30,8,Rain-Snow,360
2013-10-15,49,41,33,35,31,27,96,71,45,30.44,30.32,30.13,10,10,10,23,12,32,0.00,1,,227
2013-10-16,53,44,35,36,30,26,85,63,41,30.23,30.12,30.01,10,10,5,32,17,43,0.08,4,Rain-Snow,282
2013-10-17,43,39,35,35,34,31,100,84,67,30.24,30.20,30.14,10,9,1,33,8,39,0.02,7,Fog-Rain-Snow,243
2013-10-18,55,44,32,32,29,27,82,59,35,30.27,30.15,30.00,10,10,10,25,13,29,0.00,4,,273
2013-10-19,61,50,39,36,30,26,61,47,33,29.98,29.93,29.87,10,10,10,25,17,31,T,3,,273
2013-10-20,56,48,40,36,33,29,73,56,38,30.09,30.05,29.96,10,10,10,25,12,30,T,6,,314
2013-10-21,62,52,42,39,35,32,70,53,36,30.11,30.07,30.03,10,10,10,24,13,30,0.00,5,,277
2013-10-22,64,53,42,41,36,33,70,54,37,30.16,30.10,30.03,10,10,10,21,12,23,0.00,1,,235
2013-10-23,57,47,37,40,36,32,86,69,51,30.29,30.21,30.10,10,10,10,18,7,23,0.00,1,,73
2013-10-24,56,45,34,41,37,32,96,76,55,30.32,30.24,30.12,10,10,9,12,6,14,0.00,1,,212
2013-10-25,68,55,41,40,35,31,82,55,27,30.27,30.16,30.07,10,10,10,24,11,30,0.00,0,,233
2013-10-26,66,50,34,38,33,30,89,59,29,30.27,30.14,29.95,10,10,10,22,13,27,0.00,0,,238
2013-10-27,60,47,34,33,31,27,82,55,28,30.14,29.92,29.82,10,10,10,30,15,38,0.00,2,,63
2013-10-28,34,29,23,29,25,19,100,88,75,30.28,30.21,30.14,10,3,0,25,17,33,0.28,8,Fog-Snow,38
2013-10-29,31,28,24,25,24,23,92,85,78,30.23,30.08,29.91,10,7,0,9,4,11,T,7,Fog-Snow,360
2013-10-30,50,35,19,35,25,16,96,76,56,29.96,29.85,29.79,10,5,0,15,8,19,0.00,3,Fog,223
2013-10-31,55,46,36,35,30,27,76,60,44,29.94,29.82,29.73,10,10,10,36,18,44,0.00,3,,276